Time,TemperatureF,DewpointF,PressureIn,WindDirection,WindDirectionDegrees,WindSpeedMPH,WindSpeedGustMPH,Humidity,HourlyPrecipIn,Conditions,Clouds,dailyrainin,SoftwareType,DateUTC
2013-05-21 00:04:00,78.0,71.0,29.84,SE,135,0.0,-999.0,78,-99.99,,,0.00,weatherlink.com 1.10,2013-05-21 05:04:00,
2013-05-21 00:19:00,78.0,71.0,29.83,SE,136,0.0,-999.0,78,-99.99,,,0.00,weatherlink.com 1.10,2013-05-21 05:19:00,
2013-05-21 00:34:00,77.9,71.0,29.83,SE,136,0.0,-999.0,79,-99.99,,,0.00,weatherlink.com 1.10,2013-05-21 05:34:00,
2013-05-21 00:49:00,77.7,71.0,29.83,SE,135,0.0,-999.0,79,-99.99,,,0.00,weatherlink.com 1.10,2013-05-21 05:49:00,
2013-05-21 01:04:00,77.1,71.0,29.82,SE,135,0.0,-999.0,80,-99.99,,,0.00,weatherlink.com 1.10,2013-05-21 06:04:00,
2013-05-21 01:19:00,76.8,70.0,29.81,SE,134,0.0,-999.0,80,-99.99,,,0.00,weatherlink.com 1.10,2013-05-21 06:19:00,
2013-05-21 01:34:00,76.7,71.0,29.81,SE,130,4.0,-999.0,81,-99.99,,,0.00,weatherlink.com 1.10,2013-05-21 06:34:00,
2013-05-21 01:49:00,76.8,70.0,29.80,SE,142,5.0,-999.0,80,-99.99,,,0.00,weatherlink.com 1.10,2013-05-21 06:49:00,
2013-05-21 02:04:00,76.6,70.0,29.79,SE,146,4.0,-999.0,80,-99.99,,,0.00,weatherlink.com 1.10,2013-05-21 07:04:00,
2013-05-21 02:20:00,76.3,70.0,29.78,ESE,123,3.0,-999.0,81,-99.99,,,0.00,weatherlink.com 1.10,2013-05-21 07:20:00,
2013-05-21 02:35:00,75.9,70.0,29.77,ESE,112,3.0,-999.0,81,-99.99,,,0.00,weatherlink.com 1.10,2013-05-21 07:35:00,
2013-05-21 02:50:00,75.8,70.0,29.77,ESE,112,4.0,-999.0,81,-99.99,,,0.00,weatherlink.com 1.10,2013-05-21 07:50:00,
2013-05-21 03:05:00,75.7,70.0,29.77,ESE,111,4.0,-999.0,82,-99.99,,,0.00,weatherlink.com 1.10,2013-05-21 08:05:00,
2013-05-21 03:20:00,75.3,70.0,29.78,ESE,116,4.0,-999.0,82,-99.99,,,0.00,weatherlink.com 1.10,2013-05-21 08:20:00,
2013-05-21 03:35:00,74.9,69.0,29.77,ESE,121,1.0,-999.0,82,-99.99,,,0.00,weatherlink.com 1.10,2013-05-21 08:35:00,
2013-05-21 03:50:00,74.4,69.0,29.76,ESE,109,2.0,-999.0,83,-99.99,,,0.00,weatherlink.com 1.10,2013-05-21 08:50:00,
2013-05-21 04:05:00,74.2,69.0,29.76,ESE,115,3.0,-999.0,84,-99.99,,,0.00,weatherlink.com 1.10,2013-05-21 09:05:00,
2013-05-21 04:20:00,74.2,69.0,29.77,ESE,113,4.0,-999.0,84,-99.99,,,0.00,weatherlink.com 1.10,2013-05-21 09:20:00,
2013-05-21 04:35:00,74.0,69.0,29.76,SE,145,7.0,-999.0,85,-99.99,,,0.00,weatherlink.com 1.10,2013-05-21 09:35:00,
2013-05-21 04:50:00,73.9,69.0,29.76,ESE,103,3.0,-999.0,85,-99.99,,,0.00,weatherlink.com 1.10,2013-05-21 09:50:00,
2013-05-21 05:05:00,73.9,69.0,29.76,ESE,102,4.0,-999.0,85,-99.99,,,0.00,weatherlink.com 1.10,2013-05-21 10:05:00,
2013-05-21 05:20:00,73.9,70.0,29.76,ESE,105,4.0,-999.0,86,-99.99,,,0.00,weatherlink.com 1.10,2013-05-21 10:20:00,
2013-05-21 05:35:00,73.7,69.0,29.76,SE,132,4.0,-999.0,86,-99.99,,,0.00,weatherlink.com 1.10,2013-05-21 10:35:00,
2013-05-21 05:50:00,73.8,69.0,29.77,East,98,3.0,-999.0,86,-99.99,,,0.00,weatherlink.com 1.10,2013-05-21 10:50:00,
2013-05-21 06:05:00,73.9,70.0,29.77,ESE,102,4.0,-999.0,86,-99.99,,,0.00,weatherlink.com 1.10,2013-05-21 11:05:00,
2013-05-21 06:20:00,73.8,69.0,29.77,ESE,107,0.0,-999.0,86,-99.99,,,0.00,weatherlink.com 1.10,2013-05-21 11:20:00,
2013-05-21 06:35:00,73.6,70.0,29.77,ENE,74,0.0,-999.0,87,-99.99,,,0.00,weatherlink.com 1.10,2013-05-21 11:35:00,
2013-05-21 06:50:00,73.6,70.0,29.78,SE,127,4.0,-999.0,87,-99.99,,,0.00,weatherlink.com 1.10,2013-05-21 11:50:00,
2013-05-21 07:05:00,74.0,70.0,29.79,ESE,103,4.0,-999.0,88,-99.99,,,0.00,weatherlink.com 1.10,2013-05-21 12:05:00,
2013-05-21 07:20:00,74.5,71.0,29.78,East,92,4.0,-999.0,87,-99.99,,,0.00,weatherlink.com 1.10,2013-05-21 12:20:00,
2013-05-21 07:35:00,74.8,71.0,29.79,SE,138,5.0,-999.0,87,-99.99,,,0.00,weatherlink.com 1.10,2013-05-21 12:35:00,
2013-05-21 07:50:00,75.2,71.0,29.78,ESE,109,5.0,-999.0,87,-99.99,,,0.00,weatherlink.com 1.10,2013-05-21 12:50:00,
2013-05-21 08:06:00,75.3,71.0,29.78,SE,134,5.0,-999.0,87,-99.99,,,0.00,weatherlink.com 1.10,2013-05-21 13:06:00,
2013-05-21 08:20:00,-999.0,-99.9,29.76,North,-999,-999.0,-999.0,-999,-99.99,,,0.00,weatherlink.com 1.10,2013-05-21 13:20:00,
2013-05-21 08:36:00,-999.0,-99.9,29.77,North,-999,-999.0,-999.0,-999,-99.99,,,0.00,weatherlink.com 1.10,2013-05-21 13:36:00,
2013-05-21 08:50:00,77.7,73.0,29.77,ESE,121,4.0,-999.0,84,-99.99,,,0.00,weatherlink.com 1.10,2013-05-21 13:50:00,
2013-05-21 09:05:00,77.9,72.0,29.79,SE,140,7.0,-999.0,83,-99.99,,,0.00,weatherlink.com 1.10,2013-05-21 14:05:00,
2013-05-21 09:20:00,78.1,72.0,29.79,SE,142,9.0,-999.0,82,-99.99,,,0.00,weatherlink.com 1.10,2013-05-21 14:20:00,
2013-05-21 09:35:00,78.7,72.0,29.78,ESE,111,12.0,-999.0,81,-99.99,,,0.00,weatherlink.com 1.10,2013-05-21 14:35:00,
2013-05-21 09:50:00,79.3,72.0,29.78,SE,139,7.0,-999.0,79,-99.99,,,0.00,weatherlink.com 1.10,2013-05-21 14:50:00,
2013-05-21 10:05:00,80.5,73.0,29.78,SE,137,10.0,-999.0,78,-99.99,,,0.00,weatherlink.com 1.10,2013-05-21 15:05:00,
2013-05-21 10:20:00,80.9,73.0,29.78,SSE,152,15.0,-999.0,77,-99.99,,,0.00,weatherlink.com 1.10,2013-05-21 15:20:00,
2013-05-21 10:35:00,81.1,73.0,29.77,SE,134,10.0,-999.0,75,-99.99,,,0.00,weatherlink.com 1.10,2013-05-21 15:35:00,
2013-05-21 10:50:00,81.6,73.0,29.78,ESE,117,14.0,-999.0,74,-99.99,,,0.00,weatherlink.com 1.10,2013-05-21 15:50:00,
2013-05-21 11:05:00,81.7,72.0,29.79,ESE,120,15.0,-999.0,73,-99.99,,,0.00,weatherlink.com 1.10,2013-05-21 16:05:00,
2013-05-21 11:20:00,81.8,72.0,29.78,SE,143,13.0,-999.0,73,-99.99,,,0.00,weatherlink.com 1.10,2013-05-21 16:20:00,
2013-05-21 11:35:00,82.2,72.0,29.78,South,169,16.0,-999.0,71,-99.99,,,0.00,weatherlink.com 1.10,2013-05-21 16:35:00,
2013-05-21 11:50:00,82.9,72.0,29.78,SSE,153,8.0,-999.0,70,-99.99,,,0.00,weatherlink.com 1.10,2013-05-21 16:50:00,
2013-05-21 12:05:00,82.7,72.0,29.78,ESE,106,5.0,-999.0,69,-99.99,,,0.00,weatherlink.com 1.10,2013-05-21 17:05:00,
2013-05-21 12:20:00,82.6,72.0,29.78,SSE,147,3.0,-999.0,70,-99.99,,,0.00,weatherlink.com 1.10,2013-05-21 17:20:00,
2013-05-21 12:35:00,83.0,72.0,29.78,SE,128,4.0,-999.0,70,-99.99,,,0.00,weatherlink.com 1.10,2013-05-21 17:35:00,
2013-05-21 12:50:00,83.9,73.0,29.77,SE,126,9.0,-999.0,70,-99.99,,,0.00,weatherlink.com 1.10,2013-05-21 17:50:00,
2013-05-21 13:05:00,83.9,72.0,29.77,SSE,149,16.0,-999.0,68,-99.99,,,0.00,weatherlink.com 1.10,2013-05-21 18:05:00,
2013-05-21 13:20:00,84.6,73.0,29.77,SSE,150,4.0,-999.0,68,-99.99,,,0.00,weatherlink.com 1.10,2013-05-21 18:20:00,
2013-05-21 13:36:00,85.8,74.0,29.77,SE,144,9.0,-999.0,67,-99.99,,,0.00,weatherlink.com 1.10,2013-05-21 18:36:00,
2013-05-21 13:50:00,85.2,72.0,29.77,SE,137,6.0,-999.0,65,-99.99,,,0.00,weatherlink.com 1.10,2013-05-21 18:50:00,
2013-05-21 14:05:00,86.0,73.0,29.77,SE,138,5.0,-999.0,66,-99.99,,,0.00,weatherlink.com 1.10,2013-05-21 19:05:00,
2013-05-21 14:20:00,85.8,73.0,29.77,SE,144,6.0,-999.0,65,-99.99,,,0.00,weatherlink.com 1.10,2013-05-21 19:20:00,
2013-05-21 14:35:00,86.8,73.0,29.76,SSE,150,8.0,-999.0,64,-99.99,,,0.00,weatherlink.com 1.10,2013-05-21 19:35:00,
2013-05-21 14:50:00,86.6,72.0,29.75,SE,139,9.0,-999.0,63,-99.99,,,0.00,weatherlink.com 1.10,2013-05-21 19:50:00,
2013-05-21 15:05:00,86.6,72.0,29.74,SE,137,4.0,-999.0,63,-99.99,,,0.00,weatherlink.com 1.10,2013-05-21 20:05:00,
2013-05-21 15:20:00,87.2,73.0,29.73,South,182,0.0,-999.0,63,-99.99,,,0.00,weatherlink.com 1.10,2013-05-21 20:20:00,
2013-05-21 15:35:00,86.2,72.0,29.72,SE,128,7.0,-999.0,63,-99.99,,,0.00,weatherlink.com 1.10,2013-05-21 20:35:00,
2013-05-21 15:50:00,87.9,73.0,29.70,SE,142,9.0,-999.0,62,-99.99,,,0.00,weatherlink.com 1.10,2013-05-21 20:50:00,
2013-05-21 16:07:00,87.3,73.0,29.67,ESE,115,13.0,-999.0,62,-99.99,,,0.00,weatherlink.com 1.10,2013-05-21 21:07:00,
2013-05-21 16:21:00,86.8,72.0,29.65,SE,130,6.0,-999.0,62,-99.99,,,0.00,weatherlink.com 1.10,2013-05-21 21:21:00,
2013-05-21 16:36:00,87.4,72.0,29.63,South,183,6.0,-999.0,61,-99.99,,,0.00,weatherlink.com 1.10,2013-05-21 21:36:00,
2013-05-21 16:51:00,87.3,72.0,29.65,SE,146,12.0,-999.0,60,-99.99,,,0.00,weatherlink.com 1.10,2013-05-21 21:51:00,
2013-05-21 17:06:00,86.3,71.0,29.67,SSE,149,14.0,-999.0,61,-99.99,,,0.00,weatherlink.com 1.10,2013-05-21 22:06:00,
2013-05-21 17:21:00,85.9,71.0,29.66,South,185,4.0,-999.0,62,-99.99,,,0.00,weatherlink.com 1.10,2013-05-21 22:21:00,
2013-05-21 17:36:00,85.4,71.0,29.66,SSW,193,6.0,-999.0,63,-99.99,,,0.00,weatherlink.com 1.10,2013-05-21 22:36:00,
2013-05-21 17:51:00,84.8,71.0,29.67,South,175,4.0,-999.0,63,-99.99,,,0.00,weatherlink.com 1.10,2013-05-21 22:51:00,
2013-05-21 18:06:00,84.5,71.0,29.68,SSW,192,4.0,-999.0,64,-99.99,,,0.00,weatherlink.com 1.10,2013-05-21 23:06:00,
2013-05-21 18:21:00,84.2,71.0,29.68,SSE,154,5.0,-999.0,64,-99.99,,,0.00,weatherlink.com 1.10,2013-05-21 23:21:00,
2013-05-21 18:36:00,83.8,71.0,29.67,South,171,2.0,-999.0,65,-99.99,,,0.00,weatherlink.com 1.10,2013-05-21 23:36:00,
2013-05-21 18:51:00,83.4,71.0,29.68,SE,144,0.0,-999.0,66,-99.99,,,0.00,weatherlink.com 1.10,2013-05-21 23:51:00,
2013-05-21 19:06:00,82.9,71.0,29.69,ENE,74,0.0,-999.0,67,-99.99,,,0.00,weatherlink.com 1.10,2013-05-22 00:06:00,
2013-05-21 19:21:00,82.5,71.0,29.70,ENE,76,0.0,-999.0,68,-99.99,,,0.00,weatherlink.com 1.10,2013-05-22 00:21:00,
2013-05-21 19:36:00,78.7,69.0,29.72,NNW,345,2.0,-999.0,71,-99.99,,,0.14,weatherlink.com 1.10,2013-05-22 00:36:00,
2013-05-21 19:51:00,70.9,62.0,29.82,SSE,166,9.0,-999.0,74,-99.99,,,0.64,weatherlink.com 1.10,2013-05-22 00:51:00,
2013-05-21 20:06:00,66.9,61.0,29.77,ESE,123,0.0,-999.0,80,-99.99,,,0.92,weatherlink.com 1.10,2013-05-22 01:06:00,
2013-05-21 20:21:00,66.6,61.0,29.77,East,90,0.0,-999.0,83,-99.99,,,0.94,weatherlink.com 1.10,2013-05-22 01:21:00,
2013-05-21 20:36:00,66.6,62.0,29.77,WSW,253,0.0,-999.0,84,-99.99,,,0.94,weatherlink.com 1.10,2013-05-22 01:36:00,
2013-05-21 20:51:00,66.6,62.0,29.77,SW,232,0.0,-999.0,84,-99.99,,,0.96,weatherlink.com 1.10,2013-05-22 01:51:00,
2013-05-21 21:06:00,66.7,62.0,29.80,SSW,194,0.0,-999.0,85,-99.99,,,0.98,weatherlink.com 1.10,2013-05-22 02:06:00,
2013-05-21 21:21:00,66.8,63.0,29.81,SSE,154,0.0,-999.0,86,-99.99,,,0.98,weatherlink.com 1.10,2013-05-22 02:21:00,
2013-05-21 21:36:00,66.8,63.0,29.80,East,96,0.0,-999.0,87,-99.99,,,1.04,weatherlink.com 1.10,2013-05-22 02:36:00,
2013-05-21 21:51:00,66.8,63.0,29.80,East,95,0.0,-999.0,87,-99.99,,,1.14,weatherlink.com 1.10,2013-05-22 02:51:00,
2013-05-21 22:06:00,67.0,63.0,29.82,East,96,0.0,-999.0,87,-99.99,,,1.18,weatherlink.com 1.10,2013-05-22 03:06:00,
2013-05-21 22:21:00,66.9,63.0,29.81,West,265,3.0,-999.0,87,-99.99,,,1.20,weatherlink.com 1.10,2013-05-22 03:21:00,
2013-05-21 22:36:00,66.7,63.0,29.82,WNW,286,0.0,-999.0,88,-99.99,,,1.31,weatherlink.com 1.10,2013-05-22 03:36:00,
2013-05-21 22:51:00,66.8,63.0,29.82,West,266,0.0,-999.0,88,-99.99,,,1.31,weatherlink.com 1.10,2013-05-22 03:51:00,
2013-05-21 23:06:00,66.4,63.0,29.82,West,266,0.0,-999.0,88,-99.99,,,1.31,weatherlink.com 1.10,2013-05-22 04:06:00,
2013-05-21 23:21:00,66.5,63.0,29.82,West,266,0.0,-999.0,88,-99.99,,,1.31,weatherlink.com 1.10,2013-05-22 04:21:00,
2013-05-21 23:36:00,66.5,63.0,29.82,West,265,0.0,-999.0,89,-99.99,,,1.31,weatherlink.com 1.10,2013-05-22 04:36:00,
2013-05-21 23:51:00,65.9,63.0,29.82,WSW,254,0.0,-999.0,89,-99.99,,,1.31,weatherlink.com 1.10,2013-05-22 04:51:00,